FW9076 Weather Reports


time (UTC)temp
C
wind
direction
speed
KPH
gust
KPH
rain 1hr
cm
rain 24hr
cm
rain mn
cm
humidity
%
barometer
mb
20260508164543 20 56 1.6 6.4 0.00 0.00 0.00 29 1017.7
20260508163039 20 131 1.6 4.8 0.00 0.00 0.00 32 1017.8
20260508161545 19 109 1.6 6.4 0.00 0.00 0.00 34 1018.0
20260508160036 18 62 1.6 6.4 0.00 0.00 0.00 33 1018.3
20260508154543 18 238 1.6 4.8 0.00 0.00 0.00 33 1018.3
20260508153052 18 185 1.6 4.8 0.00 0.00 0.00 34 1018.5
20260508151543 17 212 0.0 3.2 0.00 0.00 0.00 34 1018.6
20260508150047 17 134 0.0 4.8 0.00 0.00 0.00 43 1018.5
20260508144546 16 122 0.0 3.2 0.00 0.00 0.00 49 1018.6
20260508143044 16 191 0.0 4.8 0.00 0.00 0.00 51 1018.5
20260508141608 15 200 0.0 4.8 0.00 0.00 0.00 58 1018.7
20260508140040 15 228 1.6 4.8 0.00 0.00 0.00 57 1018.7
20260508134555 14 0 0.0 1.6 0.00 0.00 0.00 69 1018.6
20260508133044 12 0 0.0 1.6 0.00 0.00 0.00 77 1018.5
20260508131542 11 0 0.0 0.0 0.00 0.00 0.00 88 1018.4
20260508130042 8 0 0.0 0.0 0.00 0.00 0.00 93 1018.5
20260508124555 7 0 0.0 0.0 0.00 0.00 0.00 95 1018.5
20260508123048 6 0 0.0 0.0 0.00 0.00 0.00 97 1018.5
20260508121544 6 0 0.0 0.0 0.00 0.00 0.00 97 1018.4
20260508120046 5 0 0.0 0.0 0.00 0.00 0.00 97 1018.3
20260508114539 5 0 0.0 0.0 0.00 0.05 0.00 97 1018.2
20260508113048 4 0 0.0 0.0 0.00 0.05 0.00 96 1017.9
20260508111547 4 0 0.0 0.0 0.00 0.05 0.00 96 1017.7
20260508110043 4 0 0.0 0.0 0.00 0.05 0.00 96 1017.6
20260508104544 4 0 0.0 0.0 0.00 0.13 0.00 96 1017.4
20260508103046 4 0 0.0 0.0 0.00 0.13 0.00 95 1016.8
20260508101541 5 0 0.0 0.0 0.00 0.13 0.00 95 1016.7
20260508100040 5 0 0.0 0.0 0.00 0.13 0.00 95 1016.4
20260508094545 5 0 0.0 0.0 0.00 0.13 0.00 95 1016.2
20260508093053 5 0 0.0 0.0 0.00 0.13 0.00 95 1016.2
20260508091550 6 0 0.0 1.6 0.00 0.13 0.00 95 1016.1
20260508090042 6 0 0.0 1.6 0.00 0.13 0.00 95 1016.0
20260508084545 6 0 0.0 0.0 0.00 0.13 0.00 94 1015.8
20260508083105 6 0 0.0 0.0 0.00 0.13 0.00 94 1015.7
20260508081541 6 0 0.0 1.6 0.00 0.13 0.00 94 1015.8
20260508080040 6 0 0.0 0.0 0.00 0.13 0.00 94 1015.7
20260508074550 7 81 0.0 1.6 0.00 0.13 0.00 94 1015.5
20260508073044 7 0 0.0 1.6 0.00 0.13 0.00 93 1015.1
20260508071543 7 0 0.0 1.6 0.00 0.13 0.00 93 1015.1
20260508070046 7 92 0.0 1.6 0.00 0.13 0.00 92 1015.0
20260508064536 7 244 0.0 1.6 0.00 0.13 0.00 93 1015.0
20260508063042 7 0 0.0 0.0 0.00 0.13 0.00 92 1014.9
20260508061543 8 0 0.0 1.6 0.00 0.13 0.00 91 1015.0
20260508060045 8 0 0.0 1.6 0.00 0.13 0.00 91 1014.9
20260508054539 8 360 0.0 1.6 0.00 0.13 0.00 90 1014.9
20260508053045 8 0 0.0 1.6 0.00 0.13 0.00 90 1015.0
20260508051545 8 0 1.6 3.2 0.00 0.13 0.00 90 1014.9
20260508050042 8 88 0.0 1.6 0.00 0.13 0.00 90 1014.8
20260508044541 8 0 0.0 1.6 0.00 0.13 0.00 90 1014.6
20260508043046 9 0 0.0 1.6 0.00 0.13 0.00 90 1014.6
20260508041544 9 345 0.0 1.6 0.00 0.13 0.00 89 1014.4
20260508040050 9 345 0.0 1.6 0.00 0.13 0.00 89 1014.3
20260508034540 9 345 0.0 1.6 0.00 0.13 0.13 88 1014.4
20260508033041 10 345 0.0 1.6 0.00 0.13 0.13 87 1014.4
20260508031555 10 0 0.0 3.2 0.00 0.13 0.13 87 1014.3
20260508030046 10 215 1.6 6.4 0.00 0.13 0.13 87 1014.1
20260508024545 10 0 0.0 1.6 0.00 0.13 0.13 87 1014.0
20260508023040 10 201 0.0 4.8 0.00 0.13 0.13 88 1013.9
20260508021549 10 192 0.0 1.6 0.00 0.13 0.13 87 1013.7
20260508020045 10 332 0.0 1.6 0.00 0.13 0.13 87 1013.6
20260508014543 10 0 0.0 0.0 0.00 0.23 0.13 84 1013.4
20260508013046 10 0 0.0 0.0 0.00 0.23 0.13 82 1013.3
20260508011541 11 0 0.0 1.6 0.00 0.23 0.13 79 1013.0
20260508010039 11 0 0.0 1.6 0.00 0.23 0.13 80 1012.8
20260508004546 12 0 0.0 3.2 0.00 0.23 0.13 77 1012.7
20260508003043 12 0 0.0 1.6 0.00 0.23 0.13 78 1012.6
20260508001542 12 0 0.0 4.8 0.00 0.23 0.13 75 1012.2
20260508000041 12 160 0.0 3.2 0.00 0.23 0.13 75 1012.5
20260507234545 13 0 0.0 1.6 0.00 0.33 0.13 74 1012.7
20260507233045 13 65 0.0 4.8 0.00 0.33 0.13 71 1013.0
20260507231553 13 113 0.0 4.8 0.00 0.33 0.13 74 1012.7
20260507230048 13 0 0.0 6.4 0.00 0.33 0.13 70 1012.3
20260507224540 14 128 0.0 6.4 0.00 0.36 0.13 69 1012.2
20260507223040 15 94 0.0 4.8 0.00 0.36 0.13 72 1012.0
20260507221547 15 0 0.0 3.2 0.00 0.36 0.13 67 1011.6
20260507220046 16 0 0.0 8.0 0.00 0.36 0.13 69 1011.2
20260507214605 16 164 0.0 11.3 0.00 0.36 0.13 72 1011.0
20260507213053 17 0 1.6 12.9 0.00 0.36 0.13 70 1010.8
20260507211540 17 155 1.6 6.4 0.00 0.36 0.13 68 1010.4
20260507210053 18 82 1.6 6.4 0.00 0.36 0.13 67 1010.0
20260507204541 18 34 0.0 4.8 0.00 0.36 0.13 68 1009.9
20260507203050 19 111 0.0 6.4 0.00 0.36 0.13 65 1009.9
20260507201545 20 144 0.0 3.2 0.00 0.36 0.13 65 1009.7
20260507200046 20 145 1.6 8.0 0.00 0.36 0.13 66 1009.6
20260507194614 21 146 1.6 6.4 0.00 0.36 0.13 67 1009.6
20260507193045 21 0 0.0 9.7 0.00 0.36 0.13 63 1009.3
20260507191550 21 159 1.6 4.8 0.00 0.36 0.13 63 1009.4
20260507190044 22 65 0.0 6.4 0.00 0.36 0.13 62 1009.5
20260507184548 22 0 1.6 8.0 0.00 0.36 0.13 70 1009.7
20260507183045 23 134 1.6 4.8 0.00 0.36 0.13 61 1009.6
20260507181547 23 141 1.6 6.4 0.00 0.36 0.13 63 1009.7
20260507180045 23 120 1.6 6.4 0.00 0.36 0.13 74 1009.4
20260507174547 22 91 0.0 4.8 0.00 0.36 0.13 75 1009.4
20260507173044 22 0 0.0 1.6 0.00 0.36 0.13 78 1009.1
20260507171550 21 0 0.0 1.6 0.00 0.36 0.13 83 1009.2
20260507170048 21 0 0.0 1.6 0.00 0.36 0.13 80 1009.3